[[{"header":{"parameterUnit":"m.s-1","parameterCategory":1,"la1":30.2991,"la2":30.254,"lo1":-89.0895,"lo2":-89.0444,"dy":0.0017,"dx":0.0017,"nx":28,"ny":28,"refTime":"2024-03-19T09:00:00:Z","depth":0,"parameterNumber":2,"parameterNumberName":"U-component_of_WINDS"},"data":[0,0,0,0,0,0,0,0,0,0,0,0,0,0,0,0,0,0,0,0,0,0,0,0,0,0,0,0,0,0,0,0,0,0,0,0,0,0,0,0,0,0,0,0,0,0,0,0,0,0,0,0,0,0,0,0,0,0,-0.378,-0.3781,0,-0.3794,-0.3794,-0.3794,-0.3792,-0.3791,-0.3791,-0.3791,-0.3805,-0.3806,-0.3806,0,0,0,0,0,0,0,0,0,0,0,0,0,-0.3752,-0.3753,-0.378,-0.3781,-0.3781,-0.3794,-0.3794,-0.3794,-0.3792,-0.3791,-0.3791,-0.3791,-0.3805,-0.3806,-0.3806,0,0,0,0,0,0,0,0,0,0,0,0,0,-0.3765,-0.3753,-0.378,-0.3781,-0.3781,-0.3794,-0.3794,-0.3795,-0.3792,-0.3791,-0.3791,-0.3791,-0.3805,-0.3806,-0.3807,-0.382,0,0,-0.3809,-0.381,0,0,0,0,0,0,0,0,-0.3764,-0.3766,-0.3781,-0.3781,-0.3781,-0.3791,-0.379,-0.3803,-0.3792,-0.3788,-0.3791,-0.379,-0.3801,-0.3802,-0.3805,-0.3821,-0.3821,-0.3809,-0.381,-0.381,-0.3811,0,0,0,0,0,0,0,-0.3764,-0.3766,-0.3786,-0.3781,-0.3781,-0.3781,-0.3782,-0.3792,-0.3796,-0.3788,-0.3788,-0.379,-0.3801,-0.3804,-0.3806,-0.3821,-0.3809,-0.381,-0.3811,-0.3811,-0.3849,-0.385,0,0,0,0,0,0,-0.3762,-0.3765,-0.3785,-0.3786,-0.3772,-0.3782,-0.3783,-0.3788,-0.3796,-0.3797,-0.379,-0.3789,-0.3803,-0.3805,-0.3806,-0.3823,-0.381,-0.3811,-0.3812,-0.3849,-0.3849,-0.385,0,0,0,0,0,0,-0.3762,-0.3764,-0.3785,-0.3776,-0.3778,-0.3782,-0.3788,-0.3789,-0.3792,-0.3797,-0.3798,-0.3793,-0.3803,-0.3805,-0.3817,-0.3824,-0.3812,-0.3813,-0.3848,-0.3849,-0.385,-0.3856,0,0,0,0,0,0,-0.3761,-0.3764,-0.3769,-0.3776,-0.3779,-0.3795,-0.3788,-0.3789,-0.3794,-0.3793,-0.38,-0.3801,-0.3803,-0.3815,-0.3818,-0.3825,-0.3813,-0.3848,-0.3848,-0.3849,-0.3856,-0.3857,-0.3859,0,0,0,0,0,-0.376,-0.377,-0.3769,-0.3772,-0.3785,-0.3795,-0.3797,-0.3798,-0.3794,-0.38,-0.3803,-0.3801,-0.3822,-0.3817,-0.3819,-0.3826,-0.3847,-0.3848,-0.3849,-0.3855,-0.3857,-0.3859,0,0,0,0,0,0,-0.3764,-0.3771,-0.377,-0.3783,-0.3789,-0.3795,-0.3801,-0.38,-0.3807,-0.3807,-0.3808,-0.381,-0.3822,-0.3825,-0.3819,-0.384,-0.3834,-0.3836,-0.3838,-0.384,-0.3841,-0.384,-0.3814,0,0,0,0,0,-0.3767,-0.3775,-0.378,-0.3791,-0.3794,-0.3797,-0.3802,-0.3802,-0.3808,-0.3811,-0.3815,-0.3821,-0.3829,-0.3834,-0.3842,-0.3856,-0.3858,-0.3862,-0.3864,-0.3865,-0.3867,-0.3875,-0.3877,-0.3853,-0.3853,-0.3853,0,0,-0.3772,-0.3777,-0.3781,-0.3792,-0.3796,-0.3805,-0.3799,-0.3808,-0.3814,-0.3812,-0.3824,-0.3827,-0.3834,-0.3847,-0.3853,-0.385,-0.3874,-0.3866,-0.3867,-0.3868,-0.3876,-0.3879,-0.3881,-0.3854,-0.3854,-0.3854,0,0,-0.3786,-0.379,-0.3799,-0.3804,-0.3811,-0.3813,-0.3816,-0.3822,-0.3824,-0.3836,-0.3835,-0.3842,-0.3856,-0.3861,-0.3866,-0.3882,-0.3881,-0.3884,-0.3893,-0.3901,-0.3903,-0.3904,-0.3911,-0.3913,-0.3886,-0.3886,-0.3886,0,-0.3791,-0.3804,-0.3804,-0.3814,-0.3819,-0.3817,-0.3827,-0.3832,-0.3841,-0.3844,-0.3841,-0.3859,-0.3863,-0.3878,-0.3882,-0.3885,-0.3889,-0.3884,-0.3902,-0.3904,-0.3906,-0.3912,-0.3915,-0.3886,-0.3886,-0.3886,-0.3886,0,-0.381,-0.3819,-0.3826,-0.3835,-0.3841,-0.385,-0.3853,-0.3859,-0.3859,-0.3862,-0.3874,-0.3879,-0.3888,-0.3892,-0.3892,-0.3907,-0.3905,-0.3902,-0.3896,-0.3908,-0.3915,-0.3917,-0.3887,-0.3887,-0.3887,-0.3886,0,0,-0.3828,-0.3837,-0.384,-0.3844,-0.3852,-0.3859,-0.3868,-0.3877,-0.3883,-0.3889,-0.3898,-0.391,-0.3907,-0.3912,-0.3913,-0.392,-0.3934,-0.3916,-0.3916,-0.392,-0.3952,-0.3954,-0.3957,-0.3933,-0.3933,-0.3933,-0.3951,0,-0.3843,-0.386,-0.3861,-0.3877,-0.3885,-0.3884,-0.3893,-0.3898,-0.3901,-0.3909,-0.3912,-0.3921,-0.3916,-0.392,-0.3927,-0.393,-0.394,-0.3929,-0.3941,-0.3942,-0.3941,-0.396,-0.3963,-0.398,-0.3954,-0.3954,-0.3954,0,-0.3863,-0.387,-0.3887,-0.3894,-0.3897,-0.3905,-0.3914,-0.3921,-0.3928,-0.3929,-0.3935,-0.3935,-0.3946,-0.3939,-0.3954,-0.3946,-0.3952,-0.3954,-0.3955,-0.3957,-0.3949,-0.3964,-0.3985,-0.3988,-0.3958,-0.3958,-0.3957,0,-0.3875,-0.3888,-0.39,-0.3904,-0.3912,-0.3918,-0.3922,-0.3928,-0.3934,-0.3941,-0.3945,-0.3954,-0.3959,-0.3965,-0.3968,-0.3963,-0.3983,-0.3976,-0.3986,-0.3986,-0.3991,-0.399,-0.4014,-0.3992,-0.3992,-0.3992,-0.3992,0,-0.3892,-0.3902,-0.3906,-0.3913,-0.3925,-0.3927,-0.3938,-0.3942,-0.3948,-0.3956,-0.3955,-0.3963,-0.3965,-0.3974,-0.3976,-0.3989,-0.3991,-0.3993,-0.3993,-0.3993,-0.3993,-0.3997,-0.3997,-0.3993,-0.3993,-0.3993,-0.3993,0,-0.3908,-0.391,-0.3923,-0.393,-0.3932,-0.3941,-0.3947,-0.3954,-0.3957,-0.3968,-0.397,-0.3975,-0.3985,-0.3988,-0.4,-0.4001,-0.4016,-0.4015,-0.4014,-0.4015,-0.4024,-0.4023,-0.4052,-0.4056,-0.4031,-0.4031,-0.4031,0,-0.3919,-0.3927,-0.3935,-0.394,-0.3944,-0.3953,-0.3959,-0.3961,-0.3967,-0.3975,-0.3982,-0.3992,-0.4,-0.4016,-0.4021,-0.403,-0.403,-0.404,-0.4032,-0.4032,-0.4032,-0.4031,-0.4033,-0.4041,-0.4042,-0.4042,-0.4042,0,-0.3939,-0.394,-0.3948,-0.3957,-0.3964,-0.3971,-0.3978,-0.3982,-0.3985,-0.3992,-0.4002,-0.4009,-0.4021,-0.4031,-0.4041,-0.4045,-0.4045,-0.4044,-0.4047,-0.4048,-0.4047,-0.4049,-0.4019,-0.4044,-0.4044,-0.4043,-0.4043,-0.4043,-0.3954,-0.3961,-0.3968,-0.3977,-0.3982,-0.3989,-0.3996,-0.4,-0.4009,-0.4019,-0.4019,-0.4031,-0.4038,-0.4051,-0.4056,-0.4065,-0.4063,-0.4066,-0.4068,-0.4069,-0.407,-0.4045,-0.4067,-0.4067,-0.4067,-0.4067,-0.4067,0,-0.3975,-0.3979,-0.3987,-0.3997,-0.4004,-0.4002,-0.401,-0.4017,-0.4027,-0.4033,-0.4041,-0.4054,-0.4064,-0.4069,-0.4079,-0.4086,-0.4086,-0.4088,-0.4089,-0.409,-0.4071,-0.4068,-0.4088,-0.4088,-0.4088,-0.4088,-0.4088,-0.4088,-0.3986,-0.3999,-0.4001,-0.4017,-0.4021,-0.4032,-0.4037,-0.4043,-0.4048,-0.4062,-0.407,-0.4074,-0.408,-0.4091,-0.41,-0.4101,-0.4106,-0.4109,-0.411,-0.4093,-0.4091,-0.4089,-0.4086,-0.411,-0.411,-0.4128,-0.4128,-0.4128]},{"header":{"parameterUnit":"m.s-1","parameterCategory":1,"la1":30.2991,"la2":30.254,"lo1":-89.0895,"lo2":-89.0444,"dy":0.0017,"dx":0.0017,"nx":28,"ny":28,"refTime":"2024-03-19T09:00:00:Z","depth":0,"parameterNumber":3,"parameterNumberName":"V-component_of_WINDS"},"data":[0,0,0,0,0,0,0,0,0,0,0,0,0,0,0,0,0,0,0,0,0,0,0,0,0,0,0,0,0,0,0,0,0,0,0,0,0,0,0,0,0,0,0,0,0,0,0,0,0,0,0,0,0,0,0,0,0,0,0.6108,0.6108,0,0.6107,0.6107,0.6107,0.6128,0.6129,0.613,0.613,0.6128,0.6128,0.6127,0,0,0,0,0,0,0,0,0,0,0,0,0,0.6128,0.6128,0.6108,0.6108,0.6108,0.6107,0.6107,0.6107,0.6128,0.6129,0.613,0.613,0.6128,0.6128,0.6127,0,0,0,0,0,0,0,0,0,0,0,0,0,0.6122,0.6127,0.6108,0.6119,0.612,0.6107,0.6107,0.6107,0.6128,0.6129,0.613,0.6131,0.6129,0.6128,0.6127,0.6104,0,0,0.6124,0.6124,0,0,0,0,0,0,0,0,0.6123,0.6122,0.6117,0.6118,0.6119,0.6119,0.6113,0.6106,0.6128,0.6125,0.613,0.6131,0.6124,0.6124,0.6122,0.6104,0.6103,0.6124,0.6123,0.6123,0.6123,0,0,0,0,0,0,0,0.6123,0.6122,0.6108,0.6117,0.6118,0.6123,0.6123,0.6112,0.612,0.6125,0.6127,0.6126,0.6125,0.6122,0.6122,0.6103,0.6124,0.6123,0.6123,0.6122,0.6064,0.6063,0,0,0,0,0,0,0.6122,0.6122,0.6108,0.6108,0.6123,0.6122,0.6122,0.6118,0.612,0.6121,0.6126,0.6127,0.6123,0.6123,0.6122,0.6093,0.6123,0.6122,0.6122,0.6065,0.6064,0.6063,0,0,0,0,0,0,0.6122,0.6121,0.6108,0.6115,0.6114,0.6121,0.6116,0.6117,0.6115,0.612,0.6122,0.6122,0.6124,0.6123,0.6107,0.6093,0.6122,0.6121,0.6066,0.6065,0.6063,0.6036,0,0,0,0,0,0,0.6123,0.6121,0.6112,0.6115,0.6113,0.6094,0.6115,0.6117,0.6113,0.6116,0.6117,0.6118,0.6125,0.6109,0.6107,0.6092,0.612,0.6067,0.6065,0.6064,0.6038,0.6034,0.603,0,0,0,0,0,0.6124,0.6105,0.6112,0.611,0.6103,0.6093,0.6092,0.6101,0.6112,0.6103,0.6106,0.6118,0.6095,0.6107,0.6105,0.609,0.6068,0.6066,0.6064,0.604,0.6035,0.603,0,0,0,0,0,0,0.6101,0.6106,0.6113,0.6095,0.6093,0.6097,0.6086,0.6095,0.609,0.6093,0.6103,0.6103,0.6086,0.6087,0.6099,0.6067,0.6084,0.6081,0.6066,0.6061,0.6057,0.6057,0.612,0,0,0,0,0,0.6094,0.6086,0.609,0.6074,0.6072,0.6079,0.6075,0.6082,0.6081,0.608,0.6082,0.608,0.6073,0.6067,0.6061,0.6039,0.6038,0.6028,0.6024,0.602,0.6017,0.6004,0.5998,0.6055,0.6055,0.6055,0,0,0.6079,0.6081,0.6075,0.6069,0.6069,0.6059,0.6079,0.6068,0.6061,0.6078,0.6063,0.6065,0.6063,0.6044,0.6036,0.6044,0.6001,0.6017,0.6015,0.6013,0.6001,0.5995,0.599,0.6054,0.6054,0.6054,0,0,0.6047,0.6048,0.6033,0.6032,0.6031,0.6036,0.6032,0.6034,0.6035,0.602,0.6033,0.6024,0.6011,0.6009,0.6006,0.5972,0.5981,0.5969,0.5947,0.5934,0.5929,0.5925,0.5911,0.5906,0.5967,0.5967,0.5967,0,0.6028,0.6015,0.6025,0.6013,0.6009,0.6024,0.6009,0.6008,0.6004,0.6001,0.6011,0.5994,0.5994,0.5973,0.5965,0.5963,0.5958,0.5969,0.5929,0.5926,0.5922,0.5908,0.5903,0.5965,0.5965,0.5965,0.5965,0,0.5991,0.5981,0.597,0.5965,0.5961,0.5947,0.5954,0.5948,0.5955,0.5958,0.5942,0.5943,0.5935,0.5931,0.5938,0.5911,0.5916,0.5928,0.5945,0.5915,0.5902,0.5897,0.5963,0.5963,0.5964,0.5964,0,0,0.5944,0.5945,0.594,0.5938,0.5937,0.593,0.5916,0.5909,0.5903,0.59,0.5888,0.5876,0.5886,0.5883,0.589,0.5878,0.5848,0.5891,0.5891,0.5881,0.5816,0.5806,0.58,0.5855,0.5854,0.5853,0.5815,0,0.5911,0.5888,0.5896,0.5873,0.5863,0.5877,0.5865,0.5863,0.5865,0.5856,0.5859,0.585,0.5865,0.5863,0.5852,0.5854,0.5835,0.5857,0.5842,0.5842,0.5841,0.5794,0.5784,0.5748,0.5811,0.581,0.5809,0,0.587,0.5864,0.5839,0.5839,0.5835,0.5824,0.5817,0.581,0.5807,0.5809,0.5805,0.5814,0.5799,0.5817,0.5797,0.5812,0.5807,0.5806,0.5805,0.5803,0.5823,0.5788,0.5737,0.5731,0.5802,0.5803,0.5803,0,0.5836,0.5823,0.5805,0.5803,0.5803,0.5794,0.5794,0.5792,0.5787,0.5781,0.5777,0.577,0.5765,0.5759,0.5765,0.5778,0.5743,0.5762,0.5743,0.5743,0.5734,0.5734,0.5679,0.5733,0.5733,0.5733,0.5734,0,0.5797,0.5781,0.579,0.5779,0.5761,0.577,0.5751,0.5752,0.575,0.5739,0.5752,0.5741,0.575,0.574,0.5745,0.5726,0.5724,0.5725,0.5726,0.5723,0.5722,0.5718,0.572,0.5732,0.5732,0.5733,0.5733,0,0.5755,0.5761,0.5743,0.5744,0.5743,0.5729,0.573,0.5719,0.5723,0.5708,0.5705,0.571,0.5698,0.5704,0.5693,0.5696,0.5671,0.5676,0.5671,0.5672,0.5652,0.5653,0.5591,0.5582,0.5644,0.5643,0.5643,0,0.573,0.5717,0.5716,0.571,0.5708,0.5698,0.5692,0.57,0.5694,0.5689,0.5678,0.5668,0.566,0.5641,0.5643,0.5633,0.5637,0.5616,0.5636,0.5632,0.5635,0.5634,0.5632,0.5612,0.5611,0.561,0.561,0,0.5683,0.5686,0.5677,0.5669,0.5661,0.5655,0.565,0.5644,0.5652,0.5644,0.5632,0.5626,0.5613,0.5602,0.5594,0.5593,0.5602,0.5604,0.5599,0.5594,0.5591,0.559,0.5658,0.5605,0.5605,0.5606,0.5606,0.5606,0.5647,0.5636,0.5633,0.5622,0.5619,0.5614,0.5603,0.5605,0.5595,0.5585,0.5591,0.5577,0.5573,0.5562,0.556,0.5548,0.5556,0.5549,0.5547,0.5545,0.5541,0.5594,0.5547,0.5547,0.5547,0.5547,0.5547,0,0.5599,0.5597,0.5587,0.5579,0.5571,0.5581,0.5575,0.5567,0.5554,0.555,0.5542,0.5527,0.5516,0.5517,0.5506,0.5497,0.55,0.5493,0.5493,0.5492,0.5535,0.554,0.549,0.549,0.549,0.549,0.549,0.549,0.5572,0.5553,0.5556,0.5535,0.5533,0.5519,0.5515,0.551,0.5506,0.5489,0.548,0.5481,0.5478,0.5467,0.5457,0.5457,0.5452,0.5443,0.5444,0.5484,0.549,0.5495,0.5499,0.5442,0.5442,0.5402,0.5402,0.5401]}]]